Eastsound, WA
on Tuesday, November 20, 2012

Tuesday
Previous Day Next Day
Daily Summary
 ActualAverage (KBLI)Record (KBLI)
Temperature
Mean Temperature °F 42°F  
Max Temperature 53°F 49°F 62°F (2002)
Min Temperature 42°F 36°F 20°F (1977)
Degree Days
Heating Degree Days 18 23  
Month to date heating degree days 413  
Cooling Degree Days 0 0  
Month to date cooling degree days 0  
Year to date cooling degree days 42  
Moisture
Dew Point 43°F   
Average Humidity 83    
Maximum Humidity 100    
Minimum Humidity 62    
Precipitation
Precipitation 0.06 in 0.19 in 0.92 in (1998)
Month to date precipitation 3.94  
Year to date precipitation 29.75  
Wind
Wind Speed 6 mph   
Max Wind Speed 13 mph   
Max Gust Speed 30 mph   
Visibility 10 miles   
Events Rain   

Key: T is trace of precipitation, MM is missing value
Source: NWS Daily Summary
Time(PST)TemperatureDew PointHumidity Pressure Visibility Wind DirectionWind SpeedGust SpeedPrecipitationEvents Conditions
12:15 AM 46.4°F 44.6°F 93% 29.64 in 5.0 miles South 5.8 mph - N/A Rain Light Rain
12:35 AM 46.4°F 44.6°F 93% 29.64 in 5.0 miles North - - 0.02 in Rain Light Rain
4:15 AM 46.4°F 44.6°F 93% 29.62 in 10.0 miles Calm Calm - N/A   Mostly Cloudy
4:35 AM 44.6°F 44.6°F 100% 29.61 in 10.0 miles Calm Calm - N/A   Scattered Clouds
4:55 AM 48.2°F 44.6°F 87% 29.61 in 10.0 miles East 3.5 mph - N/A   Scattered Clouds
5:15 AM 48.2°F 44.6°F 87% 29.60 in 10.0 miles South 8.1 mph - N/A   Partly Cloudy
5:35 AM 48.2°F 44.6°F 87% 29.60 in 10.0 miles South 6.9 mph - N/A   Clear
5:55 AM 48.2°F 44.6°F 87% 29.61 in 10.0 miles South 4.6 mph - N/A   Clear
6:15 AM 50.0°F 44.6°F 82% 29.60 in 10.0 miles South 6.9 mph - N/A   Partly Cloudy
6:35 AM 50.0°F 44.6°F 82% 29.58 in 10.0 miles South 6.9 mph - N/A   Clear
6:55 AM 50.0°F 44.6°F 82% 29.58 in 10.0 miles South 3.5 mph - N/A   Clear
7:15 AM 50.0°F 42.8°F 76% 29.56 in 10.0 miles SSE 5.8 mph - N/A   Clear
7:35 AM 50.0°F 42.8°F 76% 29.55 in 10.0 miles South 11.5 mph 17.3 mph N/A   Clear
8:15 AM 50.0°F 42.8°F 76% 29.55 in 10.0 miles SE 8.1 mph - N/A   Clear
8:35 AM 51.8°F 42.8°F 71% 29.53 in 10.0 miles SE 6.9 mph 20.7 mph N/A   Clear
8:55 AM 51.8°F 41.0°F 67% 29.51 in 10.0 miles SE 10.4 mph 26.5 mph N/A   Clear
9:15 AM 51.8°F 42.8°F 71% 29.50 in 10.0 miles SSE 5.8 mph 16.1 mph N/A   Clear
9:35 AM 51.8°F 42.8°F 71% 29.49 in 10.0 miles East 8.1 mph - N/A   Clear
9:55 AM 51.8°F 41.0°F 67% 29.50 in 10.0 miles East 10.4 mph 21.9 mph N/A   Clear
10:15 AM 53.6°F 41.0°F 62% 29.48 in 10.0 miles SE 8.1 mph 29.9 mph N/A   Clear
10:35 AM 53.6°F 41.0°F 62% 29.47 in 10.0 miles SSE 8.1 mph 17.3 mph N/A   Clear
10:55 AM 51.8°F 39.2°F 62% 29.46 in 10.0 miles SSE 6.9 mph - N/A   Clear
11:15 AM 51.8°F 41.0°F 67% 29.46 in 10.0 miles SSE 9.2 mph 20.7 mph N/A   Clear
11:35 AM 51.8°F 39.2°F 62% 29.45 in 10.0 miles South 5.8 mph - N/A   Partly Cloudy
11:55 AM 50.0°F 41.0°F 71% 29.45 in 10.0 miles SSE 6.9 mph 16.1 mph N/A   Partly Cloudy
12:15 PM 50.0°F 41.0°F 71% 29.44 in 10.0 miles SSE 6.9 mph 19.6 mph N/A   Partly Cloudy
12:35 PM 50.0°F 42.8°F 76% 29.43 in 10.0 miles SSE 9.2 mph 23.0 mph N/A   Mostly Cloudy
12:55 PM 50.0°F 41.0°F 71% 29.43 in 10.0 miles SSE 12.7 mph 26.5 mph N/A   Partly Cloudy
1:15 PM 51.8°F 41.0°F 67% 29.44 in 10.0 miles South 11.5 mph 24.2 mph N/A   Clear
1:35 PM 50.0°F 42.8°F 76% 29.45 in 9.0 miles South 10.4 mph 21.9 mph N/A Rain Light Rain
1:55 PM 50.0°F 44.6°F 82% 29.45 in 9.0 miles South 10.4 mph 24.2 mph N/A Rain Light Rain
2:15 PM 50.0°F 44.6°F 82% 29.47 in 10.0 miles South 10.4 mph 17.3 mph N/A   Scattered Clouds
2:55 PM 50.0°F 44.6°F 82% 29.49 in 10.0 miles South 10.4 mph 19.6 mph N/A   Partly Cloudy
3:15 PM 50.0°F 44.6°F 82% 29.50 in 10.0 miles South 10.4 mph 18.4 mph N/A   Mostly Cloudy
3:35 PM 50.0°F 44.6°F 82% 29.52 in 10.0 miles South 9.2 mph 16.1 mph N/A   Overcast
3:55 PM 50.0°F 44.6°F 82% 29.53 in 10.0 miles South 8.1 mph 17.3 mph N/A   Mostly Cloudy
4:15 PM 50.0°F 44.6°F 82% 29.55 in 10.0 miles South 6.9 mph - N/A   Overcast
4:55 PM 48.2°F 44.6°F 87% 29.57 in 10.0 miles South 5.8 mph - N/A   Mostly Cloudy
5:15 PM 48.2°F 44.6°F 87% 29.57 in 10.0 miles South 4.6 mph - N/A   Overcast
5:35 PM 50.0°F 44.6°F 82% 29.57 in 10.0 miles South 6.9 mph - N/A   Overcast
5:55 PM 50.0°F 44.6°F 82% 29.56 in 10.0 miles South 8.1 mph - N/A   Overcast
6:15 PM 48.2°F 44.6°F 87% 29.56 in 10.0 miles South 10.4 mph 17.3 mph N/A Rain Light Rain
6:35 PM 48.2°F 44.6°F 87% 29.59 in 5.0 miles WSW 9.2 mph 19.6 mph 0.01 in Rain Light Rain
6:55 PM 46.4°F 44.6°F 93% 29.60 in 3.0 miles WSW 5.8 mph - 0.05 in Rain Rain
7:15 PM 46.4°F 44.6°F 93% 29.60 in 9.0 miles Calm Calm - 0.01 in Rain Light Rain
7:35 PM 44.6°F 42.8°F 93% 29.61 in 10.0 miles Calm Calm - 0.01 in Rain Light Rain
7:55 PM 44.6°F 44.6°F 100% 29.60 in 10.0 miles Calm Calm - 0.01 in Rain Light Rain
8:15 PM 44.6°F 42.8°F 93% 29.61 in 10.0 miles Calm Calm - N/A   Overcast
8:35 PM 44.6°F 42.8°F 93% 29.61 in 10.0 miles Calm Calm - N/A   Overcast
8:55 PM 44.6°F 41.0°F 87% 29.61 in 10.0 miles Calm Calm - N/A   Overcast
9:15 PM 44.6°F 41.0°F 87% 29.61 in 10.0 miles Calm Calm - N/A   Overcast
9:35 PM 44.6°F 41.0°F 87% 29.61 in 10.0 miles Calm Calm - N/A   Overcast
9:55 PM 42.8°F 42.8°F 100% 29.61 in 10.0 miles Calm Calm - N/A   Overcast
10:15 PM 42.8°F 42.8°F 100% 29.61 in 10.0 miles Calm Calm - N/A   Overcast
10:35 PM 42.8°F 42.8°F 100% 29.61 in 10.0 miles Calm Calm - N/A   Overcast
10:55 PM 42.8°F 42.8°F 100% 29.60 in 10.0 miles Calm Calm - N/A   Overcast
11:15 PM 44.6°F 42.8°F 93% 29.60 in 10.0 miles Calm Calm - N/A   Overcast
11:35 PM 44.6°F 41.0°F 87% 29.59 in 10.0 miles Calm Calm - N/A   Overcast
11:55 PM 44.6°F 41.0°F 87% 29.58 in 10.0 miles Calm Calm - N/A Rain Light Rain
Moon Phase
Nov. 20 Nov. 28 Dec. 06 Dec. 13 Dec. 20
Sunrise:07:28 AM (PST) Moon Rise:12:47 PM (PST)11/20
Sunset:04:25 PM (PST) Moon Set:No Moon Set/

Copyright © 2014 The Weather Underground, Inc.